Weather History for KIKW - November, 2012

Change the Weather History Date:

Saturday, November 10, 2012

  Actual Average (KMBS) Record (KMBS)
Temperature  
Mean Temperature 48 °F 41 °F  
Max Temperature 54 °F 49 °F 63 °F (2002)
Min Temperature 41 °F 33 °F 21 °F (2003)
Degree Days  
Heating Degree Days 18    
Month to date heating degree days  
Since 1 July heating degree days  
Cooling Degree Days 0    
Month to date cooling degree days  
Year to date cooling degree days  
Moisture  
Dew Point 43 °F    
Average Humidity 84    
Maximum Humidity 96    
Minimum Humidity 75    
Precipitation  
Precipitation 0.00 in 0.09 in 1.45 in (1998)
Month to date precipitation 0.92  
Year to date precipitation 27.90  
Snow  
Snow 0.00 in - - ()
Month to date snowfall  
Since 1 July snowfall  
Since 1 September snowfall  
Snow Depth -    
Sea Level Pressure  
Sea Level Pressure 30.05 in    
Wind  
Wind Speed 6 mph (East)    
Max Wind Speed 10 mph    
Max Gust Speed -    
Visibility 6 miles    
Events Rain    
T = Trace of Precipitation, MM = Missing Value Source: NWS Daily Summary

Daily Weather History Graph

Daily Weather History Graph

Search for Another Location

Airport or City:

Trip Planner

Search our weather history database for the weather conditions in past years. The results will help you decide how hot, cold, wet, or windy it might be!

Date:

Astronomy

Nov. 10, 2012 Rise Set
Actual Time 7:25 AM EST 5:16 PM EST
Civil Twilight 6:54 AM EST 5:46 PM EST
Nautical Twilight 6:20 AM EST 6:21 PM EST
Astronomical Twilight 5:46 AM EST 6:54 PM EST
Moon 3:22 AM EST (11/10) 3:07 PM EST (11/10)
Length of Visible Light 10h 52m
Length of Day
9h 50m
Waning Crescent, 14% of the Moon is Illuminated
Nov 10
Waning Crescent
Nov 13
New
Nov 20
First Quarter
Nov 28
Full
Dec 6
Last Quarter

Hourly Weather History & Observations

Time (EST) Temp. Windchill Dew Point Humidity Pressure Visibility Wind Dir Wind Speed Gust Speed Precip Events Conditions
12:13 AM 42.3 °F 39.4 °F 37.9 °F 85% 30.12 in 5.0 mi ENE 4.6 mph - N/A   Overcast
12:33 AM 41.5 °F 37.8 °F 37.9 °F 87% 30.11 in 5.0 mi ENE 5.8 mph - N/A   Overcast
12:53 AM 41.9 °F 38.2 °F 38.1 °F 86% 30.11 in 5.0 mi ENE 5.8 mph - N/A   Mostly Cloudy
1:13 AM 42.4 °F 39.6 °F 38.5 °F 86% 30.12 in 5.0 mi ENE 4.6 mph - N/A   Overcast
1:33 AM 42.8 °F 39.3 °F 38.5 °F 85% 30.11 in 5.0 mi East 5.8 mph - N/A   Overcast
1:53 AM 42.3 °F 38.6 °F 38.3 °F 86% 30.11 in 5.0 mi East 5.8 mph - N/A   Overcast
2:13 AM 42.4 °F 38.8 °F 38.5 °F 86% 30.11 in 5.0 mi ENE 5.8 mph - N/A   Overcast
2:33 AM 42.6 °F 39.9 °F 38.3 °F 85% 30.11 in 5.0 mi ENE 4.6 mph - N/A   Haze
2:54 AM 42.8 °F 39.3 °F 38.5 °F 85% 30.12 in 5.0 mi East 5.8 mph - N/A   Overcast
3:13 AM 43.0 °F 38.8 °F 38.7 °F 85% 30.11 in 5.0 mi ENE 6.9 mph - N/A   Overcast
3:33 AM 43.0 °F 38.8 °F 38.5 °F 84% 30.11 in 5.0 mi East 6.9 mph - N/A   Overcast
3:54 AM 43.0 °F 39.5 °F 38.7 °F 85% 30.11 in 5.0 mi East 5.8 mph - N/A   Overcast
4:13 AM 42.8 °F 39.3 °F 38.5 °F 85% 30.11 in 5.0 mi ENE 5.8 mph - N/A   Haze
4:33 AM 42.8 °F 41.1 °F 38.5 °F 85% 30.12 in 5.0 mi ENE 3.5 mph - N/A   Overcast
4:53 AM 42.8 °F 39.3 °F 38.7 °F 85% 30.12 in 5.0 mi ENE 5.8 mph - N/A   Overcast
5:13 AM 42.8 °F 39.3 °F 38.7 °F 85% 30.12 in 4.0 mi ENE 5.8 mph - N/A   Overcast
5:33 AM 43.0 °F 38.8 °F 39.0 °F 86% 30.11 in 4.0 mi ENE 6.9 mph - N/A   Overcast
5:53 AM 43.0 °F 41.3 °F 39.2 °F 86% 30.12 in 4.0 mi East 3.5 mph - N/A   Overcast
6:13 AM 42.8 °F 39.3 °F 39.2 °F 87% 30.12 in 4.0 mi ENE 5.8 mph - N/A   Overcast
6:33 AM 42.4 °F 36.5 °F 39.7 °F 90% 30.10 in 3.0 mi ENE 10.4 mph - N/A Rain Rain
6:53 AM 42.3 °F 37.9 °F 40.5 °F 93% 30.11 in 3.0 mi East 6.9 mph - N/A Rain Light Rain
7:13 AM 41.9 °F 36.9 °F 40.6 °F 95% 30.10 in 2.5 mi ENE 8.1 mph - N/A   Scattered Clouds
7:33 AM 41.9 °F 40.0 °F 40.6 °F 95% 30.12 in 2.0 mi NE 3.5 mph - N/A   Mostly Cloudy
7:53 AM 42.1 °F 39.2 °F 41.0 °F 96% 30.12 in 1.5 mi East 4.6 mph - N/A   Overcast
8:13 AM 42.4 °F 37.5 °F 41.2 °F 95% 30.12 in 1.5 mi ENE 8.1 mph - N/A   Overcast
8:33 AM 42.8 °F 37.5 °F 41.4 °F 95% 30.12 in 1.5 mi East 9.2 mph - N/A   Overcast
8:53 AM 43.2 °F 39.7 °F 41.9 °F 95% 30.13 in 1.8 mi ENE 5.8 mph - N/A   Overcast
9:13 AM 43.7 °F 38.6 °F 41.9 °F 93% 30.11 in 1.8 mi ENE 9.2 mph - N/A   Overcast
9:33 AM 43.9 °F 42.3 °F 42.3 °F 94% 30.14 in 2.0 mi ENE 3.5 mph - N/A   Overcast
9:53 AM 44.2 °F 39.7 °F 42.4 °F 93% 30.11 in 2.0 mi East 8.1 mph - N/A   Overcast
10:13 AM 45.5 °F 41.3 °F 43.2 °F 92% 30.09 in 2.0 mi East 8.1 mph - N/A   Overcast
10:33 AM 45.9 °F 43.6 °F 43.3 °F 91% 30.11 in 2.5 mi East 4.6 mph - N/A   Overcast
10:53 AM 46.0 °F 41.9 °F 43.3 °F 90% 30.09 in 2.5 mi ENE 8.1 mph - N/A   Overcast
11:13 AM 46.4 °F 44.3 °F 43.7 °F 90% 30.09 in 2.5 mi East 4.6 mph - N/A   Overcast
11:33 AM 47.5 °F - 44.4 °F 89% 30.09 in 3.0 mi East 5.8 mph - N/A   Overcast
11:53 AM 47.8 °F - 44.4 °F 88% 30.08 in 3.0 mi ENE 5.8 mph - N/A   Overcast
12:13 PM 47.8 °F - 44.6 °F 89% 30.07 in 3.0 mi East 5.8 mph - N/A   Overcast
12:33 PM 48.6 °F - 44.8 °F 87% 30.06 in 4.0 mi ENE 6.9 mph - N/A   Overcast
12:54 PM 49.1 °F - 44.1 °F 83% 30.07 in 4.0 mi NE 4.6 mph - N/A   Haze
1:13 PM 49.3 °F - 44.2 °F 83% 30.06 in 4.0 mi East 5.8 mph - N/A   Haze
1:33 PM 49.3 °F - 44.4 °F 83% 30.04 in 4.0 mi East 4.6 mph - N/A   Haze
1:54 PM 49.3 °F - 44.4 °F 83% 30.04 in 4.0 mi East 6.9 mph - N/A   Haze
2:13 PM 49.6 °F - 44.6 °F 83% 30.02 in 4.0 mi East 9.2 mph - N/A   Haze
2:33 PM 50.0 °F - 44.6 °F 82% 30.02 in 5.0 mi East 8.1 mph - N/A   Haze
2:54 PM 50.4 °F - 44.6 °F 81% 30.01 in 5.0 mi East 5.8 mph - N/A   Haze
3:13 PM 51.3 °F - 45.1 °F 80% 30.00 in 5.0 mi East 5.8 mph - N/A   Haze
3:33 PM 51.4 °F - 45.3 °F 80% 29.99 in 5.0 mi East 6.9 mph - N/A   Haze
3:53 PM 52.3 °F - 45.7 °F 78% 29.99 in 7.0 mi East 6.9 mph - N/A   Overcast
4:13 PM 52.2 °F - 45.5 °F 78% 29.98 in 7.0 mi East 5.8 mph - N/A   Scattered Clouds
4:33 PM 53.2 °F - 45.9 °F 76% 29.97 in 7.0 mi East 4.6 mph - N/A   Mostly Cloudy
4:53 PM 53.2 °F - 45.9 °F 76% 29.97 in 7.0 mi East 4.6 mph - N/A   Overcast
5:14 PM 53.1 °F - 46.2 °F 78% 29.97 in 10.0 mi ESE 4.6 mph - N/A   Scattered Clouds
5:33 PM 52.3 °F - 45.7 °F 78% 29.97 in 10.0 mi ESE 3.5 mph - N/A   Scattered Clouds
5:53 PM 51.6 °F - 45.5 °F 80% 29.97 in 10.0 mi Calm Calm - N/A   Scattered Clouds
6:14 PM 51.8 °F - 45.9 °F 80% 29.97 in 10.0 mi East 4.6 mph - N/A   Scattered Clouds
6:33 PM 53.1 °F - 46.4 °F 78% 29.95 in 10.0 mi ESE 9.2 mph - N/A   Scattered Clouds
6:53 PM 53.6 °F - 46.0 °F 76% 29.96 in 10.0 mi ESE 5.8 mph - N/A   Clear
7:14 PM 52.9 °F - 45.9 °F 77% 29.96 in 10.0 mi SE 5.8 mph - N/A   Clear
7:33 PM 53.1 °F - 45.9 °F 77% 29.97 in 10.0 mi SSE 3.5 mph - N/A   Clear
7:53 PM 53.6 °F - 46.0 °F 76% 29.97 in 10.0 mi SE 5.8 mph - N/A   Clear
8:13 PM 53.6 °F - 46.2 °F 76% 29.97 in 10.0 mi SSE 4.6 mph - N/A   Clear
8:33 PM 53.6 °F - 46.4 °F 77% 29.97 in 10.0 mi SSE 5.8 mph - N/A   Scattered Clouds
8:54 PM 54.0 °F - 46.4 °F 76% 29.97 in 10.0 mi SSE 5.8 mph - N/A   Scattered Clouds
9:13 PM 53.6 °F - 46.4 °F 77% 29.97 in 10.0 mi SSE 4.6 mph - N/A   Clear
9:33 PM 53.6 °F - 46.4 °F 77% 29.96 in 10.0 mi SE 5.8 mph - N/A   Clear
9:54 PM 53.2 °F - 46.4 °F 78% 29.96 in 10.0 mi SSE 5.8 mph - N/A   Clear
10:13 PM 53.8 °F - 46.6 °F 77% 29.95 in 10.0 mi SSE 6.9 mph - N/A   Clear
10:34 PM 53.8 °F - 46.6 °F 77% 29.94 in 10.0 mi SSE 6.9 mph - N/A   Clear
11:13 PM 54.9 °F - 47.1 °F 75% 29.93 in 10.0 mi SSE 9.2 mph - N/A   Scattered Clouds
11:34 PM 54.3 °F - 46.8 °F 76% 29.93 in 10.0 mi SSE 5.8 mph - N/A   Clear
11:53 PM 54.0 °F - 46.8 °F 77% 29.94 in 10.0 mi Calm Calm - N/A   Clear